Content
SEND FEEDBACK

Daily
Averages
Monthly
Summary
United States of America

DETROIT, MICHIGAN


Home > North America > United States > Michigan
Elevation: 633 feet     Latitude: 42 14N     Longitude: 083 20W

WEATHER
 
SELECT A DAY
Number of Records: 211,422;   Date Range: 1/1/95 - 11/22/14
 
SHARE

PRINT THIS DATA

[ ← Previous Day ]
WEATHER ALMANAC - JANUARY 31, 2013
[ Next Day → ]
[ °C ]   °F
Weather ElementAverageHighLow
Temperature23.1 °F30.9 °F (12:53 am)17.1 °F (11:53 pm)
Dewpoint14.7 °F19 °F (12:53 am)10 °F (6:53 pm)
Humidity70.6 %81 % (8:53 am)54 % (11:35 am)
Barometer29.66 in29.90 in (10:53 pm)29.31 in (12:53 am)
Wind Speed18 mph29.9 mph (12:53 am)
Wind Gust44.9 mph (4:53 am)
Weather ElementAverage
Visibility4.2 mi
Wind DirectionWSW (249.1 °)

Weather ElementTotal
Precipitation0.05 in
Heating Degree Days41 (Base 65)
Averaged from 54 records on January 31, 2013
WEATHER CONDITIONS BREAKOUT
WIND DIRECTION BREAKOUT
WEATHER BY HOUR - JANUARY 31, 2013
[ °C ]   °F
Local TimeTemperatureDewpointHumidityBarometerVisibilityWind DirectionWind SpeedGust SpeedPrecipitationEventsConditions
12:53 AM30.9 °F19.0 °F61 %29.31 in10.0 miWest (260°)29.9 mph40.3 mph0.00 inMostly Cloudy
1:53 AM30.0 °F16.0 °F56 %29.36 in10.0 miWest (260°)15.0 mph34.5 mphOvercast
2:53 AM28.9 °F17.1 °F61 %29.41 in8.0 miWest (260°)23.0 mph36.8 mph0.00 inSnowLight Snow
3:53 AM28.9 °F16.0 °F58 %29.43 in7.0 miWest (260°)24.2 mph34.5 mph0.00 inSnowLight Snow
4:53 AM27.0 °F12.9 °F56 %29.46 in8.0 miWSW (250°)23.0 mph44.9 mph0.00 inSnowLight Snow
5:28 AM26.6 °F12.2 °F55 %29.48 in9.0 miWest (260°)25.3 mph32.2 mph0.00 inSnowLight Snow
5:53 AM26.1 °F15.1 °F63 %29.50 in7.0 miWest (270°)18.4 mph27.6 mph0.00 inSnowLight Snow
6:09 AM26.6 °F15.8 °F64 %29.50 in9.0 miWest (260°)19.6 mph29.9 mph0.00 inSnowLight Snow
6:39 AM24.8 °F17.6 °F74 %29.52 in1.0 miWest (270°)15.0 mph0.00 inSnowLight Snow
6:45 AM24.8 °F17.6 °F74 %29.52 in1.0 miWSW (250°)11.5 mph20.7 mph0.00 inSnowLight Snow
6:53 AM25.0 °F18.0 °F75 %29.54 in1.0 miWSW (250°)12.7 mph21.9 mph0.00 inSnowLight Snow
7:00 AM24.8 °F17.6 °F74 %29.53 in0.8 miWSW (250°)11.5 mph0.00 inSnowLight Snow
7:24 AM23.0 °F17.6 °F80 %29.55 in1.5 miWest (270°)23.0 mph33.4 mph0.00 inSnowLight Snow
7:38 AM23.0 °F17.6 °F80 %29.55 in2.5 miWest (260°)19.6 mph0.01 inSnowLight Snow
7:47 AM24.8 °F17.6 °F74 %29.56 in1.5 miWest (260°)16.1 mph0.01 inSnowLight Snow
7:53 AM24.1 °F16.0 °F71 %29.58 in1.5 miWest (260°)21.9 mph34.5 mph0.01 inSnowLight Snow
8:03 AM23.0 °F17.6 °F80 %29.57 in2.0 miWest (270°)15.0 mph0.00 inSnowLight Snow
8:24 AM23.0 °F17.6 °F80 %29.59 in1.0 miWSW (250°)17.3 mph0.00 inSnowLight Snow
8:35 AM23.0 °F17.6 °F80 %29.59 in0.5 miWest (260°)15.0 mph0.00 inSnowLight Snow
8:53 AM23.0 °F18.0 °F81 %29.62 in2.0 miWSW (250°)12.7 mph0.01 inSnowLight Snow
8:55 AM23.0 °F17.6 °F80 %29.60 in5.0 miWSW (250°)10.4 mph0.00 inSnowLight Snow
9:35 AM24.8 °F14.0 °F64 %29.62 in10.0 miWSW (240°)18.4 mph25.3 mph0.00 inOvercast
9:53 AM24.1 °F12.9 °F62 %29.64 in10.0 miWSW (250°)19.6 mph33.4 mph0.00 inSnowLight Snow
10:30 AM24.8 °F15.8 °F69 %29.65 in1.5 miWSW (240°)25.3 mph33.4 mph0.00 inSnowLight Snow
10:33 AM23.0 °F15.8 °F74 %29.65 in0.8 miSW (230°)19.6 mph33.4 mph0.00 inSnowLight Snow
10:43 AM23.0 °F15.8 °F74 %29.66 in3.0 miWSW (240°)20.7 mph33.4 mph0.00 inSnowLight Snow
10:53 AM23.0 °F16.0 °F74 %29.68 in4.0 miWSW (250°)19.6 mph28.8 mph0.00 inSnowLight Snow
11:35 AM24.8 °F10.4 °F54 %29.68 in1.0 miWSW (250°)23.0 mph32.2 mph0.00 inSnowLight Snow
11:51 AM23.0 °F15.8 °F74 %29.68 in1.5 miWSW (250°)15.0 mph28.8 mph0.00 inSnowLight Snow
11:53 AM24.1 °F16.0 °F71 %29.70 in5.0 miWSW (250°)15.0 mph25.3 mph0.00 inSnowLight Snow
12:53 PM23.0 °F12.9 °F65 %29.72 in4.0 miSW (230°)21.9 mph29.9 mph0.00 inSnowLight Snow
1:13 PM23.0 °F12.2 °F63 %29.69 in4.0 miWSW (250°)20.7 mph32.2 mph0.00 inSnowLight Snow
1:49 PM23.0 °F12.2 °F63 %29.70 in2.5 miWSW (250°)23.0 mph31.1 mph0.00 inSnowLight Snow
1:53 PM21.9 °F14.0 °F72 %29.72 in4.0 miWSW (250°)19.6 mph31.1 mph0.00 inSnowLight Snow
2:53 PM23.0 °F14.0 °F68 %29.74 in7.0 miWest (260°)17.3 mph23.0 mph0.00 inSnowLight Snow
3:14 PM23.0 °F15.8 °F74 %29.72 in1.5 miWest (260°)15.0 mph21.9 mph0.00 inSnowLight Snow
3:18 PM23.0 °F15.8 °F74 %29.72 in4.0 miWSW (240°)17.3 mph23.0 mph0.00 inSnowLight Snow
3:53 PM21.9 °F12.9 °F68 %29.76 in4.0 miSW (230°)21.9 mph31.1 mph0.00 inSnowLight Snow
4:06 PM21.2 °F15.8 °F80 %29.74 in1.5 miWSW (250°)12.7 mph27.6 mph0.00 inSnowLight Snow
4:14 PM21.2 °F15.8 °F80 %29.74 in1.5 miWSW (250°)12.7 mph0.00 inSnowLight Snow
4:36 PM21.2 °F15.8 °F80 %29.75 in0.1 miWSW (240°)19.6 mph25.3 mph0.00 inSnowLight Snow
4:53 PM21.0 °F14.0 °F74 %29.78 in0.1 miWSW (240°)21.9 mph28.8 mph0.00 inSnowLight Snow
5:00 PM21.2 °F12.2 °F68 %29.75 in1.0 miWSW (240°)20.7 mph27.6 mph0.00 inSnowLight Snow
5:11 PM21.2 °F12.2 °F68 %29.76 in2.0 miWSW (250°)16.1 mphSnowLight Snow
5:19 PM21.2 °F12.2 °F68 %29.76 in8.0 miWSW (250°)19.6 mph29.9 mph0.00 inSnowLight Snow
5:53 PM21.0 °F12.0 °F68 %29.79 in9.0 miWSW (250°)17.3 mph21.9 mph0.00 inOvercast
6:53 PM21.0 °F10.0 °F63 %29.83 in10.0 miWSW (250°)16.1 mph21.9 mphOvercast
7:53 PM19.9 °F10.9 °F68 %29.86 in9.0 miSW (230°)13.8 mph0.00 inSnowLight Snow
8:23 PM19.4 °F10.4 °F68 %29.84 in9.0 miSW (230°)18.4 mph23.0 mph0.00 inSnowLight Snow
8:53 PM19.0 °F12.0 °F74 %29.87 in3.0 miSW (220°)16.1 mph0.00 inSnowLight Snow
9:53 PM18.0 °F12.0 °F78 %29.89 in8.0 miSW (230°)13.8 mph0.00 inSnowLight Snow
10:37 PM17.6 °F12.2 °F79 %29.87 in3.0 miSW (230°)15.0 mph0.00 inSnowLight Snow
10:53 PM18.0 °F12.0 °F78 %29.90 in2.0 miSW (230°)12.7 mph0.00 inSnowLight Snow
11:53 PM17.1 °F12.0 °F81 %29.90 in2.0 miWest (260°)11.5 mph0.01 inSnowLight Snow
Hourly data recorded from KDTW, located miles away from Detroit, Michigan







STORIES FROM OUR PARTNERS